,,,PA_Meas_PMT16A,,PR_Meas_QMR101_102,,RH_Meas_QMH101,,SR_Meas_QMS101,,TA_Meas_QMH101,,GenWind,,GenWind,
date,time,status,PA,status,PR,status,RH,status,SR,status,TA,status,DirAvg,status,SpdAvg,
2014-02-01, 00:00:04,VALID,1011.67,VALID,0,VALID,97.9986,VALID,0.112112,VALID,22.7571,VALID,330,VALID,0,
2014-02-01, 00:01:04,VALID,1011.66,VALID,0,VALID,98.1129,VALID,0,VALID,22.7394,VALID,330,VALID,0,
2014-02-01, 00:02:04,VALID,1011.66,VALID,0,VALID,98.2426,VALID,0,VALID,22.7394,VALID,330,VALID,0,
2014-02-01, 00:03:04,VALID,1011.66,VALID,0,VALID,98.3875,VALID,0,VALID,22.7199,VALID,330,VALID,0,
2014-02-01, 00:04:04,VALID,1011.65,VALID,0,VALID,98.4332,VALID,0,VALID,22.7606,VALID,330,VALID,0,
2014-02-01, 00:05:04,VALID,1011.67,VALID,0,VALID,98.5552,VALID,0,VALID,22.7394,VALID,330,VALID,0,
2014-02-01, 00:06:04,VALID,1011.68,VALID,0,VALID,98.5552,VALID,0,VALID,22.7199,VALID,330,VALID,0,
2014-02-01, 00:07:04,VALID,1011.65,VALID,0,VALID,98.5781,VALID,0,VALID,22.7199,VALID,330,VALID,0,
2014-02-01, 00:08:04,VALID,1011.65,VALID,0,VALID,98.5781,VALID,0,VALID,22.7394,VALID,330,VALID,0,
2014-02-01, 00:09:04,VALID,1011.66,VALID,0,VALID,98.6315,VALID,0,VALID,22.7199,VALID,330,VALID,0,
2014-02-01, 00:10:04,VALID,1011.64,VALID,0,VALID,98.7916,VALID,0,VALID,22.7199,VALID,331,VALID,0,
2014-02-01, 00:11:04,VALID,1011.63,VALID,0,VALID,98.8145,VALID,0.112112,VALID,22.7394,VALID,331,VALID,0,
2014-02-01, 00:12:04,VALID,1011.61,VALID,0,VALID,98.6239,VALID,0,VALID,22.7394,VALID,331,VALID,0,
2014-02-01, 00:13:04,VALID,1011.59,VALID,0,VALID,98.54,VALID,0,VALID,22.7004,VALID,331,VALID,0,
2014-02-01, 00:14:04,VALID,1011.62,VALID,0,VALID,98.7611,VALID,0,VALID,22.7199,VALID,331,VALID,0,
2014-02-01, 00:15:04,VALID,1011.64,VALID,0,VALID,98.8755,VALID,0,VALID,22.7199,VALID,331,VALID,0,
2014-02-01, 00:16:04,VALID,1011.6,VALID,0,VALID,98.9289,VALID,0,VALID,22.7216,VALID,331,VALID,0,
2014-02-01, 00:17:04,VALID,1011.61,VALID,0,VALID,98.9899,VALID,0,VALID,22.7004,VALID,331,VALID,0,
2014-02-01, 00:18:04,VALID,1011.61,VALID,0,VALID,98.9747,VALID,0,VALID,22.7004,VALID,331,VALID,0,
2014-02-01, 00:19:04,VALID,1011.6,VALID,0,VALID,99.089,VALID,0,VALID,22.7004,VALID,340,VALID,0,
2014-02-01, 00:20:04,VALID,1011.6,VALID,0,VALID,99.1348,VALID,0,VALID,22.7004,VALID,340,VALID,0,
2014-02-01, 00:21:04,VALID,1011.61,VALID,0,VALID,99.0738,VALID,0,VALID,22.6809,VALID,342,VALID,0,
2014-02-01, 00:22:04,VALID,1011.6,VALID,0,VALID,99.2187,VALID,0,VALID,22.6809,VALID,348,VALID,0,
2014-02-01, 00:23:04,VALID,1011.59,VALID,0,VALID,99.2644,VALID,0,VALID,22.6809,VALID,318,VALID,0,
2014-02-01, 00:24:04,VALID,1011.6,VALID,0,VALID,99.2873,VALID,0,VALID,22.7004,VALID,346,VALID,0,
2014-02-01, 00:25:04,VALID,1011.6,VALID,0,VALID,99.2568,VALID,0,VALID,22.6809,VALID,346,VALID,0,
2014-02-01, 00:26:04,VALID,1011.6,VALID,0,VALID,99.3178,VALID,0,VALID,22.7004,VALID,346,VALID,0,
2014-02-01, 00:27:04,VALID,1011.57,VALID,0,VALID,99.4169,VALID,0,VALID,22.6809,VALID,346,VALID,0,
2014-02-01, 00:28:04,VALID,1011.61,VALID,0,VALID,99.3941,VALID,0,VALID,22.6809,VALID,346,VALID,0,
2014-02-01, 00:29:04,VALID,1011.58,VALID,0,VALID,99.4551,VALID,0,VALID,22.6614,VALID,346,VALID,0,
2014-02-01, 00:30:04,VALID,1011.57,VALID,0,VALID,99.4627,VALID,0,VALID,22.642,VALID,346,VALID,0,
2014-02-01, 00:31:04,VALID,1011.53,VALID,0,VALID,99.6305,VALID,0,VALID,22.6208,VALID,346,VALID,0,
2014-02-01, 00:32:04,VALID,1011.5,VALID,0,VALID,99.7296,VALID,0.112112,VALID,22.6208,VALID,346,VALID,0,
2014-02-01, 00:33:04,VALID,1011.51,VALID,0,VALID,99.844,VALID,0.112112,VALID,22.6013,VALID,346,VALID,0,
2014-02-01, 00:34:04,VALID,1011.49,VALID,0,VALID,99.8974,VALID,0.112112,VALID,22.6013,VALID,346,VALID,0,
2014-02-01, 00:35:04,VALID,1011.51,VALID,0,VALID,99.8974,VALID,0.112112,VALID,22.5818,VALID,346,VALID,0,
2014-02-01, 00:36:04,VALID,1011.5,VALID,0,VALID,99.9202,VALID,0.112112,VALID,22.5623,VALID,346,VALID,0,
2014-02-01, 00:37:04,VALID,1011.5,VALID,0,VALID,100.073,VALID,0.224224,VALID,22.5429,VALID,346,VALID,0,
2014-02-01, 00:38:04,VALID,1011.49,VALID,0,VALID,100.302,VALID,0.112112,VALID,22.5217,VALID,346,VALID,0,
2014-02-01, 00:39:04,VALID,1011.44,VALID,0,VALID,100.363,VALID,0.224224,VALID,22.5429,VALID,346,VALID,0,
2014-02-01, 00:40:04,VALID,1011.43,VALID,0,VALID,100.431,VALID,0,VALID,22.5446,VALID,346,VALID,0,
2014-02-01, 00:41:04,VALID,1011.38,VALID,0,VALID,100.416,VALID,0,VALID,22.4844,VALID,346,VALID,0,
2014-02-01, 00:42:04,VALID,1011.35,VALID,0,VALID,100.53,VALID,0,VALID,22.5056,VALID,346,VALID,0,
2014-02-01, 00:43:04,VALID,1011.35,VALID,0,VALID,100.675,VALID,0,VALID,22.4861,VALID,346,VALID,0,
2014-02-01, 00:44:04,VALID,1011.36,VALID,0,VALID,100.668,VALID,0,VALID,22.4878,VALID,346,VALID,0,
2014-02-01, 00:45:04,VALID,1011.37,VALID,0,VALID,100.751,VALID,0,VALID,22.4684,VALID,346,VALID,0,
2014-02-01, 00:46:04,VALID,1011.37,VALID,0,VALID,100.851,VALID,0,VALID,22.4277,VALID,346,VALID,0,
2014-02-01, 00:47:04,VALID,1011.37,VALID,0,VALID,100.912,VALID,0,VALID,22.4082,VALID,346,VALID,0,
2014-02-01, 00:48:04,VALID,1011.35,VALID,0,VALID,101.133,VALID,0,VALID,22.3887,VALID,346,VALID,0,
2014-02-01, 00:49:04,VALID,1011.35,VALID,0,VALID,101.377,VALID,0,VALID,22.3676,VALID,346,VALID,0,
2014-02-01, 00:50:04,VALID,1011.34,VALID,0,VALID,101.445,VALID,0,VALID,22.3887,VALID,346,VALID,0,
2014-02-01, 00:51:04,VALID,1011.35,VALID,0,VALID,101.43,VALID,0,VALID,22.3693,VALID,346,VALID,0,
2014-02-01, 00:52:04,VALID,1011.36,VALID,0,VALID,101.689,VALID,0,VALID,22.3693,VALID,346,VALID,0,
2014-02-01, 00:53:04,VALID,1011.36,VALID,0,VALID,101.789,VALID,0,VALID,22.4082,VALID,346,VALID,0,
2014-02-01, 00:54:04,VALID,1011.36,VALID,0,VALID,101.773,VALID,0,VALID,22.3887,VALID,346,VALID,0,
2014-02-01, 00:55:04,VALID,1011.36,VALID,0,VALID,101.75,VALID,0,VALID,22.3887,VALID,346,VALID,0,
2014-02-01, 00:56:04,VALID,1011.34,VALID,0,VALID,101.872,VALID,0,VALID,22.4082,VALID,346,VALID,0,
2014-02-01, 00:57:04,VALID,1011.31,VALID,0,VALID,101.903,VALID,0,VALID,22.3887,VALID,346,VALID,0,
2014-02-01, 00:58:04,VALID,1011.33,VALID,0,VALID,101.979,VALID,0,VALID,22.4294,VALID,346,VALID,0,
2014-02-01, 00:59:04,VALID,1011.34,VALID,0,VALID,102.033,VALID,0,VALID,22.4277,VALID,346,VALID,0,
2014-02-01, 01:00:04,VALID,1011.32,VALID,0,VALID,102.086,VALID,0,VALID,22.4277,VALID,346,VALID,0,
2014-02-01, 01:01:04,VALID,1011.3,VALID,0,VALID,102.132,VALID,0,VALID,22.4277,VALID,346,VALID,0,
2014-02-01, 01:02:04,VALID,1011.3,VALID,0,VALID,102.162,VALID,0,VALID,22.4472,VALID,346,VALID,0,
2014-02-01, 01:03:04,VALID,1011.3,VALID,0,VALID,102.238,VALID,0,VALID,22.4667,VALID,346,VALID,0,
2014-02-01, 01:04:04,VALID,1011.33,VALID,0,VALID,102.269,VALID,0,VALID,22.4667,VALID,346,VALID,0,
2014-02-01, 01:05:04,VALID,1011.32,VALID,0,VALID,102.33,VALID,0,VALID,22.5056,VALID,346,VALID,0,
2014-02-01, 01:06:04,VALID,1011.31,VALID,0,VALID,102.345,VALID,0,VALID,22.4861,VALID,346,VALID,0,
2014-02-01, 01:07:04,VALID,1011.31,VALID,0,VALID,102.406,VALID,0,VALID,22.5056,VALID,346,VALID,0,
2014-02-01, 01:08:04,VALID,1011.3,VALID,0,VALID,102.46,VALID,0,VALID,22.5463,VALID,346,VALID,0,
2014-02-01, 01:09:04,VALID,1011.29,VALID,0,VALID,102.559,VALID,0,VALID,22.5463,VALID,346,VALID,0,
2014-02-01, 01:10:04,VALID,1011.24,VALID,0,VALID,102.673,VALID,0,VALID,22.5835,VALID,346,VALID,0,
2014-02-01, 01:11:04,VALID,1011.23,VALID,0,VALID,102.772,VALID,0,VALID,22.5835,VALID,346,VALID,0,
2014-02-01, 01:12:04,VALID,1011.23,VALID,0,VALID,102.803,VALID,0,VALID,22.5835,VALID,346,VALID,0,
2014-02-01, 01:13:04,VALID,1011.19,VALID,0,VALID,102.849,VALID,0,VALID,22.5818,VALID,346,VALID,0,
2014-02-01, 01:14:04,VALID,1011.19,VALID,0,VALID,102.742,VALID,0,VALID,22.5835,VALID,346,VALID,0,
2014-02-01, 01:15:04,VALID,1011.15,VALID,0,VALID,102.62,VALID,0,VALID,22.564,VALID,346,VALID,0,
2014-02-01, 01:16:04,VALID,1011.15,VALID,0,VALID,102.467,VALID,0.112112,VALID,22.5818,VALID,346,VALID,0,
2014-02-01, 01:17:04,VALID,1011.15,VALID,0,VALID,102.406,VALID,0.112112,VALID,22.6013,VALID,346,VALID,0,
2014-02-01, 01:18:04,VALID,1011.16,VALID,0,VALID,102.353,VALID,0,VALID,22.6208,VALID,346,VALID,0,
2014-02-01, 01:19:04,VALID,1011.13,VALID,0,VALID,102.33,VALID,0.112112,VALID,22.6402,VALID,346,VALID,0,
2014-02-01, 01:20:04,VALID,1011.13,VALID,0,VALID,102.299,VALID,0.112112,VALID,22.6402,VALID,346,VALID,0,
2014-02-01, 01:21:04,VALID,1011.13,VALID,0,VALID,102.261,VALID,0.112112,VALID,22.6597,VALID,346,VALID,0,
2014-02-01, 01:22:04,VALID,1011.12,VALID,0,VALID,102.246,VALID,0.112112,VALID,22.6792,VALID,346,VALID,0,
2014-02-01, 01:23:04,VALID,1011.12,VALID,0,VALID,102.162,VALID,0.112112,VALID,22.6792,VALID,346,VALID,0,
2014-02-01, 01:24:04,VALID,1011.11,VALID,0,VALID,102.017,VALID,0.112112,VALID,22.6987,VALID,346,VALID,0,
2014-02-01, 01:25:04,VALID,1011.09,VALID,0,VALID,101.857,VALID,0,VALID,22.6987,VALID,346,VALID,0,
2014-02-01, 01:26:04,VALID,1011.07,VALID,0,VALID,101.796,VALID,0.112112,VALID,22.7182,VALID,346,VALID,0,
2014-02-01, 01:27:04,VALID,1011.07,VALID,0,VALID,101.72,VALID,0.112112,VALID,22.7182,VALID,346,VALID,0,
2014-02-01, 01:28:04,VALID,1011.03,VALID,0,VALID,101.712,VALID,0.112112,VALID,22.7182,VALID,346,VALID,0,
2014-02-01, 01:29:04,VALID,1011.04,VALID,0,VALID,101.689,VALID,0.112112,VALID,22.7376,VALID,346,VALID,0,
2014-02-01, 01:30:04,VALID,1010.99,VALID,0,VALID,101.651,VALID,0.112112,VALID,22.7376,VALID,346,VALID,0,
2014-02-01, 01:31:04,VALID,1010.97,VALID,0,VALID,101.651,VALID,0,VALID,22.7199,VALID,346,VALID,0,
2014-02-01, 01:32:04,VALID,1010.98,VALID,0,VALID,101.621,VALID,0,VALID,22.7199,VALID,346,VALID,0,
2014-02-01, 01:33:04,VALID,1010.96,VALID,0,VALID,101.651,VALID,0,VALID,22.7004,VALID,346,VALID,0,
2014-02-01, 01:34:04,VALID,1010.94,VALID,0,VALID,101.743,VALID,0,VALID,22.7004,VALID,346,VALID,0,
2014-02-01, 01:35:04,VALID,1010.96,VALID,0,VALID,101.827,VALID,0,VALID,22.7004,VALID,346,VALID,0,
2014-02-01, 01:36:04,VALID,1010.95,VALID,0,VALID,101.865,VALID,0,VALID,22.7199,VALID,346,VALID,0,
2014-02-01, 01:37:04,VALID,1010.94,VALID,0,VALID,101.857,VALID,0,VALID,22.7394,VALID,346,VALID,0,
2014-02-01, 01:38:04,VALID,1010.94,VALID,0,VALID,101.789,VALID,0,VALID,22.7588,VALID,346,VALID,0,
2014-02-01, 01:39:04,VALID,1010.93,VALID,0,VALID,101.651,VALID,0,VALID,22.7783,VALID,346,VALID,0,
2014-02-01, 01:40:04,VALID,1010.92,VALID,0,VALID,101.499,VALID,0,VALID,22.7978,VALID,346,VALID,0,
2014-02-01, 01:41:04,VALID,1010.9,VALID,0,VALID,101.339,VALID,0,VALID,22.7978,VALID,346,VALID,0,
2014-02-01, 01:42:04,VALID,1010.88,VALID,0,VALID,101.354,VALID,0,VALID,22.7783,VALID,346,VALID,0,
2014-02-01, 01:43:04,VALID,1010.87,VALID,0,VALID,101.27,VALID,0,VALID,22.7783,VALID,346,VALID,0,
2014-02-01, 01:44:04,VALID,1010.86,VALID,0,VALID,101.27,VALID,0,VALID,22.7588,VALID,346,VALID,0,
2014-02-01, 01:45:04,VALID,1010.84,VALID,0,VALID,101.232,VALID,0,VALID,22.7394,VALID,346,VALID,0,
2014-02-01, 01:46:04,VALID,1010.84,VALID,0,VALID,101.301,VALID,0,VALID,22.7394,VALID,346,VALID,0,
2014-02-01, 01:47:04,VALID,1010.83,VALID,0,VALID,101.285,VALID,0,VALID,22.7199,VALID,346,VALID,0,
2014-02-01, 01:48:05,VALID,1010.81,VALID,0,VALID,101.476,VALID,0,VALID,22.7004,VALID,346,VALID,0,
2014-02-01, 01:49:05,VALID,1010.8,VALID,0,VALID,101.613,VALID,0,VALID,22.7004,VALID,346,VALID,0,
2014-02-01, 01:50:05,VALID,1010.79,VALID,0,VALID,101.499,VALID,0,VALID,22.6809,VALID,346,VALID,0,
2014-02-01, 01:51:05,VALID,1010.77,VALID,0,VALID,101.484,VALID,0,VALID,22.6614,VALID,346,VALID,0,
2014-02-01, 01:52:05,VALID,1010.8,VALID,0,VALID,101.583,VALID,0,VALID,22.642,VALID,346,VALID,0,
2014-02-01, 01:53:05,VALID,1010.8,VALID,0,VALID,101.689,VALID,0,VALID,22.6242,VALID,346,VALID,0,
2014-02-01, 01:54:05,VALID,1010.77,VALID,0,VALID,101.735,VALID,0,VALID,22.564,VALID,346,VALID,0,
2014-02-01, 01:55:05,VALID,1010.77,VALID,0,VALID,101.926,VALID,0,VALID,22.564,VALID,346,VALID,0,
2014-02-01, 01:56:05,VALID,1010.81,VALID,0,VALID,102.01,VALID,0,VALID,22.5446,VALID,346,VALID,0,
2014-02-01, 01:57:05,VALID,1010.81,VALID,0,VALID,102.116,VALID,0,VALID,22.5251,VALID,346,VALID,0,
2014-02-01, 01:58:05,VALID,1010.82,VALID,0,VALID,102.338,VALID,0,VALID,22.5251,VALID,346,VALID,0,
2014-02-01, 01:59:05,VALID,1010.82,VALID,0,VALID,102.536,VALID,0,VALID,22.5251,VALID,346,VALID,0,
2014-02-01, 02:00:05,VALID,1010.82,VALID,0,VALID,102.437,VALID,0,VALID,22.5056,VALID,346,VALID,0,
2014-02-01, 02:01:05,VALID,1010.82,VALID,0,VALID,102.482,VALID,0,VALID,22.4861,VALID,346,VALID,0,
2014-02-01, 02:02:05,VALID,1010.78,VALID,0,VALID,102.704,VALID,0,VALID,22.5251,VALID,346,VALID,0,
2014-02-01, 02:03:05,VALID,1010.82,VALID,0,VALID,102.688,VALID,0,VALID,22.5463,VALID,346,VALID,0,
2014-02-01, 02:04:05,VALID,1010.77,VALID,0,VALID,102.772,VALID,0,VALID,22.5251,VALID,346,VALID,0,
2014-02-01, 02:05:05,VALID,1010.77,VALID,0,VALID,102.681,VALID,0,VALID,22.5056,VALID,346,VALID,0,
2014-02-01, 02:06:05,VALID,1010.73,VALID,0,VALID,102.65,VALID,0,VALID,22.4861,VALID,346,VALID,0,
2014-02-01, 02:07:05,VALID,1010.7,VALID,0,VALID,102.551,VALID,0,VALID,22.4667,VALID,346,VALID,0,
2014-02-01, 02:08:05,VALID,1010.71,VALID,0,VALID,102.559,VALID,0,VALID,22.4472,VALID,346,VALID,0,
2014-02-01, 02:09:05,VALID,1010.7,VALID,0,VALID,102.627,VALID,0,VALID,22.4489,VALID,346,VALID,0,
2014-02-01, 02:10:05,VALID,1010.68,VALID,0,VALID,102.818,VALID,0,VALID,22.4667,VALID,346,VALID,0,
2014-02-01, 02:11:05,VALID,1010.67,VALID,0,VALID,102.765,VALID,0,VALID,22.4277,VALID,346,VALID,0,
2014-02-01, 02:12:05,VALID,1010.65,VALID,0,VALID,102.666,VALID,0,VALID,22.387,VALID,346,VALID,0,
2014-02-01, 02:13:05,VALID,1010.65,VALID,0,VALID,102.734,VALID,0,VALID,22.4082,VALID,346,VALID,0,
2014-02-01, 02:14:05,VALID,1010.61,VALID,0,VALID,102.711,VALID,0,VALID,22.3693,VALID,346,VALID,0,
2014-02-01, 02:15:05,VALID,1010.59,VALID,0,VALID,102.772,VALID,0,VALID,22.3693,VALID,346,VALID,0,
2014-02-01, 02:16:05,VALID,1010.59,VALID,0,VALID,102.818,VALID,0,VALID,22.371,VALID,346,VALID,0,
2014-02-01, 02:17:05,VALID,1010.59,VALID,0,VALID,102.91,VALID,0,VALID,22.3303,VALID,346,VALID,0,
2014-02-01, 02:18:05,VALID,1010.58,VALID,0,VALID,103.001,VALID,0,VALID,22.2914,VALID,346,VALID,0,
2014-02-01, 02:19:05,VALID,1010.58,VALID,0,VALID,103.032,VALID,0,VALID,22.2719,VALID,346,VALID,0,
2014-02-01, 02:20:05,VALID,1010.58,VALID,0,VALID,103.039,VALID,0,VALID,22.2541,VALID,346,VALID,0,
2014-02-01, 02:21:05,VALID,1010.54,VALID,0,VALID,103.184,VALID,0,VALID,22.2151,VALID,346,VALID,0,
2014-02-01, 02:22:05,VALID,1010.56,VALID,0,VALID,103.184,VALID,0,VALID,22.1745,VALID,346,VALID,0,
2014-02-01, 02:23:05,VALID,1010.53,VALID,0,VALID,103.314,VALID,0,VALID,22.1355,VALID,346,VALID,0,
2014-02-01, 02:24:05,VALID,1010.54,VALID,0,VALID,103.588,VALID,0,VALID,22.1762,VALID,346,VALID,0,
2014-02-01, 02:25:05,VALID,1010.5,VALID,0,VALID,103.794,VALID,0,VALID,22.155,VALID,346,VALID,0,
2014-02-01, 02:26:05,VALID,1010.5,VALID,0,VALID,103.848,VALID,0,VALID,22.1355,VALID,346,VALID,0,
2014-02-01, 02:27:05,VALID,1010.45,VALID,0,VALID,103.848,VALID,0,VALID,22.1161,VALID,346,VALID,0,
2014-02-01, 02:28:05,VALID,1010.44,VALID,0,VALID,103.87,VALID,0,VALID,22.0771,VALID,346,VALID,0,
2014-02-01, 02:29:05,VALID,1010.45,VALID,0,VALID,104,VALID,0,VALID,22.0771,VALID,346,VALID,0,
2014-02-01, 02:30:05,VALID,1010.44,VALID,0,VALID,104,VALID,0,VALID,22.0771,VALID,346,VALID,0,
2014-02-01, 02:31:05,VALID,1010.45,VALID,0,VALID,104,VALID,0,VALID,22.0382,VALID,346,VALID,0,
2014-02-01, 02:32:05,VALID,1010.46,VALID,0,VALID,104,VALID,0,VALID,22.0187,VALID,346,VALID,0,
2014-02-01, 02:33:05,VALID,1010.46,VALID,0,VALID,104,VALID,0,VALID,21.9992,VALID,346,VALID,0,
2014-02-01, 02:34:05,VALID,1010.44,VALID,0,VALID,104,VALID,0,VALID,22.0009,VALID,346,VALID,0,
2014-02-01, 02:35:05,VALID,1010.43,VALID,0,VALID,104,VALID,0,VALID,21.9408,VALID,346,VALID,0,
2014-02-01, 02:36:05,VALID,1010.43,VALID,0,VALID,104,VALID,0,VALID,21.9002,VALID,346,VALID,0,
2014-02-01, 02:37:05,VALID,1010.42,VALID,0,VALID,104,VALID,0,VALID,21.9213,VALID,346,VALID,0,
2014-02-01, 02:38:05,VALID,1010.43,VALID,0,VALID,104,VALID,0,VALID,21.8807,VALID,346,VALID,0,
2014-02-01, 02:39:05,VALID,1010.43,VALID,0,VALID,104,VALID,0,VALID,21.8807,VALID,346,VALID,0,
2014-02-01, 02:40:05,VALID,1010.43,VALID,0,VALID,104,VALID,0,VALID,21.8612,VALID,346,VALID,0,
2014-02-01, 02:41:05,VALID,1010.41,VALID,0,VALID,104,VALID,0,VALID,21.8824,VALID,346,VALID,0,
2014-02-01, 02:42:05,VALID,1010.41,VALID,0,VALID,104,VALID,0,VALID,21.8629,VALID,346,VALID,0,
2014-02-01, 02:43:05,VALID,1010.39,VALID,0,VALID,104,VALID,0,VALID,21.8434,VALID,346,VALID,0,
2014-02-01, 02:44:05,VALID,1010.39,VALID,0,VALID,104,VALID,0,VALID,21.8028,VALID,346,VALID,0,
2014-02-01, 02:45:05,VALID,1010.37,VALID,0,VALID,104,VALID,0,VALID,21.7655,VALID,346,VALID,0,
2014-02-01, 02:46:05,VALID,1010.37,VALID,0,VALID,104,VALID,0.112112,VALID,21.7655,VALID,346,VALID,0,
2014-02-01, 02:47:05,VALID,1010.33,VALID,0,VALID,104,VALID,0.112112,VALID,21.7071,VALID,346,VALID,0,
2014-02-01, 02:48:05,VALID,1010.34,VALID,0,VALID,104,VALID,0,VALID,21.6876,VALID,346,VALID,0,
2014-02-01, 02:49:05,VALID,1010.32,VALID,0,VALID,104,VALID,0,VALID,21.6681,VALID,346,VALID,0,
2014-02-01, 02:50:05,VALID,1010.35,VALID,0,VALID,104,VALID,0,VALID,21.6681,VALID,346,VALID,0,
2014-02-01, 02:51:05,VALID,1010.34,VALID,0,VALID,104,VALID,0,VALID,21.6487,VALID,346,VALID,0,
2014-02-01, 02:52:05,VALID,1010.29,VALID,0,VALID,104,VALID,0,VALID,21.6893,VALID,346,VALID,0,
2014-02-01, 02:53:05,VALID,1010.29,VALID,0,VALID,104,VALID,0,VALID,21.647,VALID,346,VALID,0,
2014-02-01, 02:54:05,VALID,1010.31,VALID,0,VALID,104,VALID,0,VALID,21.6276,VALID,346,VALID,0,
2014-02-01, 02:55:05,VALID,1010.28,VALID,0,VALID,104,VALID,0,VALID,21.6097,VALID,346,VALID,0,
2014-02-01, 02:56:05,VALID,1010.27,VALID,0,VALID,104,VALID,0,VALID,21.5497,VALID,346,VALID,0,
2014-02-01, 02:57:05,VALID,1010.25,VALID,0,VALID,104,VALID,0,VALID,21.5302,VALID,346,VALID,0,
2014-02-01, 02:58:05,VALID,1010.25,VALID,0,VALID,104,VALID,0,VALID,21.5708,VALID,346,VALID,0,
2014-02-01, 02:59:05,VALID,1010.24,VALID,0,VALID,104,VALID,0,VALID,21.5513,VALID,346,VALID,0,
2014-02-01, 03:00:05,VALID,1010.21,VALID,0,VALID,104,VALID,0,VALID,21.5902,VALID,346,VALID,0,
2014-02-01, 03:01:05,VALID,1010.2,VALID,0,VALID,104,VALID,0,VALID,21.5902,VALID,346,VALID,0,
2014-02-01, 03:02:05,VALID,1010.2,VALID,0,VALID,104,VALID,0.112112,VALID,21.5902,VALID,346,VALID,0,
2014-02-01, 03:03:05,VALID,1010.17,VALID,0,VALID,104,VALID,0,VALID,21.5691,VALID,346,VALID,0,
2014-02-01, 03:04:05,VALID,1010.17,VALID,0,VALID,104,VALID,0,VALID,21.5497,VALID,346,VALID,0,
2014-02-01, 03:05:05,VALID,1010.17,VALID,0,VALID,104,VALID,0,VALID,21.5708,VALID,346,VALID,0,
2014-02-01, 03:06:05,VALID,1010.17,VALID,0,VALID,104,VALID,0,VALID,21.5302,VALID,346,VALID,0,
2014-02-01, 03:07:05,VALID,1010.14,VALID,0,VALID,104,VALID,0,VALID,21.5302,VALID,346,VALID,0,
2014-02-01, 03:08:05,VALID,1010.16,VALID,0,VALID,104,VALID,0,VALID,21.5124,VALID,346,VALID,0,
2014-02-01, 03:09:05,VALID,1010.14,VALID,0,VALID,104,VALID,0,VALID,21.5124,VALID,346,VALID,0,
2014-02-01, 03:10:05,VALID,1010.12,VALID,0,VALID,104,VALID,0,VALID,21.5124,VALID,346,VALID,0,
2014-02-01, 03:11:05,VALID,1010.13,VALID,0,VALID,104,VALID,0,VALID,21.4734,VALID,346,VALID,0,
2014-02-01, 03:12:05,VALID,1010.15,VALID,0,VALID,104,VALID,0,VALID,21.4539,VALID,346,VALID,0,
2014-02-01, 03:13:05,VALID,1010.16,VALID,0,VALID,104,VALID,0,VALID,21.4345,VALID,346,VALID,0,
2014-02-01, 03:14:05,VALID,1010.13,VALID,0,VALID,104,VALID,0,VALID,21.4134,VALID,346,VALID,0,
2014-02-01, 03:15:05,VALID,1010.14,VALID,0,VALID,104,VALID,0,VALID,21.4556,VALID,346,VALID,0,
2014-02-01, 03:16:05,VALID,1010.17,VALID,0,VALID,104,VALID,0,VALID,21.4345,VALID,346,VALID,0,
2014-02-01, 03:17:05,VALID,1010.19,VALID,0,VALID,104,VALID,0,VALID,21.4734,VALID,346,VALID,0,
2014-02-01, 03:18:05,VALID,1010.2,VALID,0,VALID,104,VALID,0,VALID,21.4134,VALID,346,VALID,0,
2014-02-01, 03:19:05,VALID,1010.19,VALID,0,VALID,104,VALID,0,VALID,21.3566,VALID,346,VALID,0,
2014-02-01, 03:20:05,VALID,1010.2,VALID,0,VALID,104,VALID,0.112112,VALID,21.3371,VALID,346,VALID,0,
2014-02-01, 03:21:05,VALID,1010.2,VALID,0,VALID,104,VALID,0,VALID,21.3176,VALID,346,VALID,0,
2014-02-01, 03:22:05,VALID,1010.19,VALID,0,VALID,104,VALID,0,VALID,21.3176,VALID,346,VALID,0,
2014-02-01, 03:23:05,VALID,1010.2,VALID,0,VALID,104,VALID,0,VALID,21.3371,VALID,346,VALID,0,
2014-02-01, 03:24:05,VALID,1010.19,VALID,0,VALID,104,VALID,0,VALID,21.3176,VALID,346,VALID,0,
2014-02-01, 03:25:05,VALID,1010.19,VALID,0,VALID,104,VALID,0,VALID,21.2982,VALID,346,VALID,0,
2014-02-01, 03:26:05,VALID,1010.17,VALID,0,VALID,104,VALID,0,VALID,21.2982,VALID,346,VALID,0,
2014-02-01, 03:27:05,VALID,1010.14,VALID,0,VALID,104,VALID,0,VALID,21.2982,VALID,346,VALID,0,
2014-02-01, 03:28:05,VALID,1010.15,VALID,0,VALID,104,VALID,0,VALID,21.2787,VALID,346,VALID,0,
2014-02-01, 03:29:05,VALID,1010.15,VALID,0,VALID,104,VALID,0,VALID,21.2397,VALID,346,VALID,0,
2014-02-01, 03:30:05,VALID,1010.18,VALID,0,VALID,104,VALID,0,VALID,21.1813,VALID,346,VALID,0,
2014-02-01, 03:31:05,VALID,1010.14,VALID,0,VALID,104,VALID,0,VALID,21.1813,VALID,346,VALID,0,
2014-02-01, 03:32:05,VALID,1010.16,VALID,0,VALID,104,VALID,0,VALID,21.1424,VALID,346,VALID,0,
2014-02-01, 03:33:05,VALID,1010.13,VALID,0,VALID,104,VALID,0,VALID,21.144,VALID,346,VALID,0,
2014-02-01, 03:34:05,VALID,1010.13,VALID,0,VALID,104,VALID,0,VALID,21.1019,VALID,346,VALID,0,
2014-02-01, 03:35:05,VALID,1010.15,VALID,0,VALID,104,VALID,0,VALID,21.1245,VALID,346,VALID,0,
2014-02-01, 03:36:05,VALID,1010.14,VALID,0,VALID,104,VALID,0,VALID,21.0856,VALID,346,VALID,0,
2014-02-01, 03:37:05,VALID,1010.14,VALID,0,VALID,104,VALID,0,VALID,21.024,VALID,346,VALID,0,
2014-02-01, 03:38:05,VALID,1010.15,VALID,0,VALID,104,VALID,0,VALID,21.045,VALID,346,VALID,0,
2014-02-01, 03:39:05,VALID,1010.15,VALID,0,VALID,104,VALID,0,VALID,21.024,VALID,346,VALID,0,
2014-02-01, 03:40:05,VALID,1010.12,VALID,0,VALID,104,VALID,0,VALID,21.0256,VALID,346,VALID,0,
2014-02-01, 03:41:05,VALID,1010.12,VALID,0,VALID,104,VALID,0,VALID,21.0045,VALID,346,VALID,0,
2014-02-01, 03:42:05,VALID,1010.13,VALID,0,VALID,104,VALID,0,VALID,21.045,VALID,346,VALID,0,
2014-02-01, 03:43:05,VALID,1010.13,VALID,0,VALID,104,VALID,0,VALID,21.0661,VALID,346,VALID,0,
2014-02-01, 03:44:05,VALID,1010.12,VALID,0,VALID,104,VALID,0,VALID,21.024,VALID,346,VALID,0,
2014-02-01, 03:45:05,VALID,1010.15,VALID,0,VALID,104,VALID,0,VALID,21.0045,VALID,346,VALID,0,
2014-02-01, 03:46:05,VALID,1010.12,VALID,0,VALID,104,VALID,0,VALID,21.045,VALID,346,VALID,0,
2014-02-01, 03:47:05,VALID,1010.14,VALID,0,VALID,104,VALID,0,VALID,21.0256,VALID,346,VALID,0,
2014-02-01, 03:48:05,VALID,1010.13,VALID,0,VALID,104,VALID,0,VALID,20.985,VALID,346,VALID,0,
2014-02-01, 03:49:05,VALID,1010.11,VALID,0,VALID,104,VALID,0,VALID,21.0061,VALID,346,VALID,0,
2014-02-01, 03:50:05,VALID,1010.13,VALID,0,VALID,104,VALID,0,VALID,21.0061,VALID,346,VALID,0,
2014-02-01, 03:51:05,VALID,1010.11,VALID,0,VALID,104,VALID,0,VALID,20.9866,VALID,346,VALID,0,
2014-02-01, 03:52:05,VALID,1010.13,VALID,0,VALID,104,VALID,0,VALID,20.9866,VALID,346,VALID,0,
2014-02-01, 03:53:05,VALID,1010.12,VALID,0,VALID,104,VALID,0,VALID,20.9445,VALID,346,VALID,0,
2014-02-01, 03:54:05,VALID,1010.12,VALID,0,VALID,104,VALID,0,VALID,20.9866,VALID,346,VALID,0,
2014-02-01, 03:55:05,VALID,1010.12,VALID,0,VALID,104,VALID,0,VALID,20.9688,VALID,346,VALID,0,
2014-02-01, 03:56:05,VALID,1010.11,VALID,0,VALID,104,VALID,0,VALID,20.9493,VALID,346,VALID,0,
2014-02-01, 03:57:05,VALID,1010.08,VALID,0,VALID,104,VALID,0,VALID,20.9298,VALID,346,VALID,0,
2014-02-01, 03:58:05,VALID,1010.08,VALID,0,VALID,104,VALID,0,VALID,20.8893,VALID,346,VALID,0,
2014-02-01, 03:59:05,VALID,1010.07,VALID,0,VALID,104,VALID,0,VALID,20.8682,VALID,346,VALID,0,
2014-02-01, 04:00:05,VALID,1010.04,VALID,0,VALID,104,VALID,0,VALID,20.8503,VALID,346,VALID,0,
2014-02-01, 04:01:05,VALID,1010.03,VALID,0,VALID,104,VALID,0,VALID,20.8714,VALID,346,VALID,0,